Location: Potawatomi Wildlife Park
(41.2308°N, 86.1050°W)
Time: 19:26:44
(UTC-04:00)

Hubble Space Telescope - Visible Passes

Search period start: 03 September 2015 00:00
Search period end: 13 September 2015 00:00
Orbit: 541 x 545 km, 28.5° (Epoch: 02 September)

Date Brightness Start Highest point End Pass type
(mag) Time Alt. Az. Time Alt. Az. Time Alt. Az.
06 Sep 3.2 05:36:26 10° S 05:36:45 10° SSE 05:37:24 10° SSE visible
07 Sep 3.2 05:28:01 11° SSE 05:28:01 11° SSE 05:29:08 10° SSE visible
08 Sep 3.2 05:19:37 12° SSE 05:19:37 12° SSE 05:20:25 10° SE visible
09 Sep 3.3 05:11:14 11° SSE 05:11:14 11° SSE 05:11:32 10° SE visible
09 Sep 3.0 06:48:16 10° SSW 06:50:02 12° S 06:51:45 10° SSE visible
10 Sep 3.0 06:39:38 10° SSW 06:40:56 11° S 06:42:11 10° S visible
